Time,TemperatureF,DewpointF,PressureIn,WindDirection,WindDirectionDegrees,WindSpeedMPH,WindSpeedGustMPH,Humidity,HourlyPrecipIn,Conditions,Clouds,dailyrainin,SolarRadiationWatts/m^2,SoftwareType,DateUTC
2013-09-17 00:52:00,61.0,47.0,-100.00,West,267,10.0,17.0,60,-99.99,,,0.00,0.000000,,2013-09-17 07:52:00,
2013-09-17 01:02:00,61.0,47.0,-100.00,West,267,10.0,17.0,60,-99.99,,,0.00,0.000000,,2013-09-17 08:02:00,
2013-09-17 01:12:00,61.0,47.0,-100.00,West,267,10.0,17.0,60,-99.99,,,0.00,0.000000,,2013-09-17 08:12:00,
2013-09-17 01:21:00,61.0,47.0,-100.00,West,267,10.0,17.0,60,-99.99,,,0.00,0.000000,,2013-09-17 08:21:00,
2013-09-17 01:52:00,60.0,50.0,-100.00,West,260,9.0,18.0,69,0.00,,,0.00,0.000000,,2013-09-17 08:52:00,
2013-09-17 02:02:00,60.0,50.0,-100.00,West,260,9.0,18.0,69,0.00,,,0.00,0.000000,,2013-09-17 09:02:00,
2013-09-17 02:12:00,60.0,50.0,-100.00,West,260,9.0,18.0,69,0.00,,,0.00,0.000000,,2013-09-17 09:12:00,
2013-09-17 02:22:00,60.0,50.0,-100.00,West,260,9.0,18.0,69,0.00,,,0.00,0.000000,,2013-09-17 09:22:00,
2013-09-17 03:53:00,59.0,46.0,-100.00,West,272,19.0,24.0,62,-99.99,,,0.00,0.000000,,2013-09-17 10:53:00,
2013-09-17 04:03:00,59.0,46.0,-100.00,West,272,19.0,24.0,62,-99.99,,,0.00,0.000000,,2013-09-17 11:03:00,
2013-09-17 04:11:00,59.0,46.0,-100.00,West,272,19.0,24.0,62,-99.99,,,0.00,0.000000,,2013-09-17 11:11:00,
2013-09-17 04:22:00,59.0,46.0,-100.00,West,272,19.0,24.0,62,-99.99,,,0.00,0.000000,,2013-09-17 11:22:00,
2013-09-17 04:52:00,58.0,46.0,-100.00,West,269,16.0,23.0,65,0.00,,,0.00,0.000000,,2013-09-17 11:52:00,
2013-09-17 05:02:00,58.0,46.0,-100.00,West,269,16.0,23.0,65,0.00,,,0.00,0.000000,,2013-09-17 12:02:00,
2013-09-17 05:12:00,58.0,46.0,-100.00,West,269,16.0,23.0,65,0.00,,,0.00,0.000000,,2013-09-17 12:12:00,
2013-09-17 05:21:00,58.0,46.0,-100.00,West,269,16.0,23.0,65,0.00,,,0.00,0.000000,,2013-09-17 12:21:00,
2013-09-17 05:52:00,58.0,48.0,-100.00,WSW,258,12.0,21.0,69,0.00,,,0.00,0.000000,,2013-09-17 12:52:00,
2013-09-17 06:02:00,58.0,48.0,-100.00,WSW,258,12.0,21.0,69,0.00,,,0.00,0.000000,,2013-09-17 13:02:00,
2013-09-17 06:11:00,58.0,48.0,-100.00,WSW,258,12.0,21.0,69,0.00,,,0.00,0.000000,,2013-09-17 13:11:00,
2013-09-17 06:22:00,58.0,48.0,-100.00,WSW,258,12.0,21.0,69,0.00,,,0.00,0.000000,,2013-09-17 13:22:00,
2013-09-17 06:52:00,56.0,49.0,-100.00,West,264,15.0,22.0,77,0.00,,,-99.99,0.000000,,2013-09-17 13:52:00,
2013-09-17 07:02:00,56.0,49.0,-100.00,West,264,15.0,22.0,77,0.00,,,-99.99,0.000000,,2013-09-17 14:02:00,
2013-09-17 07:11:00,56.0,49.0,-100.00,West,264,15.0,22.0,77,0.00,,,-99.99,0.000000,,2013-09-17 14:11:00,
2013-09-17 07:21:00,56.0,49.0,-100.00,West,264,15.0,22.0,77,0.00,,,-99.99,0.000000,,2013-09-17 14:21:00,
2013-09-17 07:52:00,57.0,51.0,-100.00,West,267,15.0,21.0,79,0.00,,,0.00,13.000000,,2013-09-17 14:52:00,
2013-09-17 08:02:00,57.0,51.0,-100.00,West,267,15.0,21.0,79,0.00,,,0.00,13.000000,,2013-09-17 15:02:00,
2013-09-17 08:11:00,57.0,51.0,-100.00,West,267,15.0,21.0,79,0.00,,,0.00,13.000000,,2013-09-17 15:11:00,
2013-09-17 08:22:00,57.0,51.0,-100.00,West,267,15.0,21.0,79,0.00,,,0.00,13.000000,,2013-09-17 15:22:00,
2013-09-17 08:53:00,58.0,48.0,-100.00,West,262,17.0,28.0,69,0.00,,,0.00,124.000000,,2013-09-17 15:53:00,
2013-09-17 09:03:00,58.0,48.0,-100.00,West,262,17.0,28.0,69,0.00,,,0.00,124.000000,,2013-09-17 16:03:00,
2013-09-17 09:12:00,58.0,48.0,-100.00,West,262,17.0,28.0,69,0.00,,,0.00,124.000000,,2013-09-17 16:12:00,
2013-09-17 09:23:00,58.0,48.0,-100.00,West,262,17.0,28.0,69,0.00,,,0.00,124.000000,,2013-09-17 16:23:00,
2013-09-17 09:54:00,59.0,49.0,-100.00,West,264,19.0,27.0,69,0.00,,,0.00,337.000000,,2013-09-17 16:54:00,
2013-09-17 10:03:00,59.0,49.0,-100.00,West,264,19.0,27.0,69,0.00,,,0.00,337.000000,,2013-09-17 17:03:00,
2013-09-17 10:12:00,59.0,49.0,-100.00,West,264,19.0,27.0,69,0.00,,,0.00,337.000000,,2013-09-17 17:12:00,
2013-09-17 10:23:00,59.0,49.0,-100.00,West,264,19.0,27.0,69,0.00,,,0.00,337.000000,,2013-09-17 17:23:00,
2013-09-17 10:53:00,61.0,50.0,-100.00,West,269,20.0,34.0,66,0.00,,,0.00,510.000000,,2013-09-17 17:53:00,
2013-09-17 11:02:00,61.0,50.0,-100.00,West,269,20.0,34.0,66,0.00,,,0.00,510.000000,,2013-09-17 18:02:00,
2013-09-17 11:12:00,61.0,50.0,-100.00,West,269,20.0,34.0,66,0.00,,,0.00,510.000000,,2013-09-17 18:12:00,
2013-09-17 11:21:00,61.0,50.0,-100.00,West,269,20.0,34.0,66,0.00,,,0.00,510.000000,,2013-09-17 18:21:00,
2013-09-17 11:52:00,65.0,49.0,-100.00,West,272,24.0,34.0,57,0.00,,,0.00,655.000000,,2013-09-17 18:52:00,
2013-09-17 12:02:00,65.0,49.0,-100.00,West,272,24.0,34.0,57,0.00,,,0.00,655.000000,,2013-09-17 19:02:00,
2013-09-17 12:11:00,65.0,49.0,-100.00,West,272,24.0,34.0,57,0.00,,,0.00,655.000000,,2013-09-17 19:11:00,
2013-09-17 12:21:00,65.0,49.0,-100.00,West,272,24.0,34.0,57,0.00,,,0.00,655.000000,,2013-09-17 19:21:00,
2013-09-17 12:52:00,67.0,47.0,-100.00,West,275,18.0,31.0,48,0.00,,,0.00,751.000000,,2013-09-17 19:52:00,
2013-09-17 13:02:00,67.0,47.0,-100.00,West,275,18.0,31.0,48,0.00,,,0.00,751.000000,,2013-09-17 20:02:00,
2013-09-17 13:11:00,67.0,47.0,-100.00,West,275,18.0,31.0,48,0.00,,,0.00,751.000000,,2013-09-17 20:11:00,
2013-09-17 13:22:00,67.0,47.0,-100.00,West,275,18.0,31.0,48,0.00,,,0.00,751.000000,,2013-09-17 20:22:00,
2013-09-17 13:52:00,68.0,47.0,-100.00,West,275,21.0,30.0,47,0.00,,,0.00,789.000000,,2013-09-17 20:52:00,
2013-09-17 14:01:00,68.0,47.0,-100.00,West,275,21.0,30.0,47,0.00,,,0.00,789.000000,,2013-09-17 21:01:00,
2013-09-17 14:12:00,68.0,47.0,-100.00,West,275,21.0,30.0,47,0.00,,,0.00,789.000000,,2013-09-17 21:12:00,
2013-09-17 14:22:00,68.0,47.0,-100.00,West,275,21.0,30.0,47,0.00,,,0.00,789.000000,,2013-09-17 21:22:00,
2013-09-17 14:54:00,69.0,48.0,-100.00,West,275,20.0,29.0,48,0.00,,,0.00,767.000000,,2013-09-17 21:54:00,
2013-09-17 15:04:00,69.0,48.0,-100.00,West,275,20.0,29.0,48,0.00,,,0.00,767.000000,,2013-09-17 22:04:00,
2013-09-17 15:13:00,69.0,48.0,-100.00,West,275,20.0,29.0,48,0.00,,,0.00,767.000000,,2013-09-17 22:13:00,
2013-09-17 15:24:00,69.0,48.0,-100.00,West,275,20.0,29.0,48,0.00,,,0.00,767.000000,,2013-09-17 22:24:00,
2013-09-17 15:53:00,69.0,47.0,-100.00,West,273,17.0,29.0,45,0.00,,,0.00,689.000000,,2013-09-17 22:53:00,
2013-09-17 16:03:00,69.0,47.0,-100.00,West,273,17.0,29.0,45,0.00,,,0.00,689.000000,,2013-09-17 23:03:00,
2013-09-17 16:12:00,69.0,47.0,-100.00,West,273,17.0,29.0,45,0.00,,,0.00,689.000000,,2013-09-17 23:12:00,
2013-09-17 16:21:00,69.0,47.0,-100.00,West,273,17.0,29.0,45,0.00,,,0.00,689.000000,,2013-09-17 23:21:00,
2013-09-17 16:52:00,68.0,45.0,-100.00,West,272,17.0,27.0,44,0.00,,,0.00,559.000000,,2013-09-17 23:52:00,
2013-09-17 17:02:00,68.0,45.0,-100.00,West,272,17.0,27.0,44,0.00,,,0.00,559.000000,,2013-09-18 00:02:00,
2013-09-17 17:11:00,68.0,45.0,-100.00,West,272,17.0,27.0,44,0.00,,,0.00,559.000000,,2013-09-18 00:11:00,
2013-09-17 17:22:00,68.0,45.0,-100.00,West,272,17.0,27.0,44,0.00,,,0.00,559.000000,,2013-09-18 00:22:00,
2013-09-17 17:52:00,68.0,48.0,-100.00,West,270,16.0,25.0,48,0.00,,,0.00,388.000000,,2013-09-18 00:52:00,
2013-09-17 18:01:00,68.0,48.0,-100.00,West,270,16.0,25.0,48,0.00,,,0.00,388.000000,,2013-09-18 01:01:00,
2013-09-17 18:11:00,68.0,48.0,-100.00,West,270,16.0,25.0,48,0.00,,,0.00,388.000000,,2013-09-18 01:11:00,
2013-09-17 18:21:00,68.0,48.0,-100.00,West,270,16.0,25.0,48,0.00,,,0.00,388.000000,,2013-09-18 01:21:00,
2013-09-17 18:52:00,67.0,47.0,-100.00,West,269,14.0,23.0,48,0.00,,,0.00,202.000000,,2013-09-18 01:52:00,
2013-09-17 19:03:00,67.0,47.0,-100.00,West,269,14.0,23.0,48,0.00,,,0.00,202.000000,,2013-09-18 02:03:00,
2013-09-17 19:11:00,67.0,47.0,-100.00,West,269,14.0,23.0,48,0.00,,,0.00,202.000000,,2013-09-18 02:11:00,
2013-09-17 19:22:00,67.0,47.0,-100.00,West,269,14.0,23.0,48,0.00,,,0.00,202.000000,,2013-09-18 02:22:00,
2013-09-17 19:52:00,63.0,47.0,-100.00,WSW,256,9.0,18.0,56,0.00,,,0.00,35.000000,,2013-09-18 02:52:00,
2013-09-17 20:02:00,63.0,47.0,-100.00,WSW,256,9.0,18.0,56,0.00,,,0.00,35.000000,,2013-09-18 03:02:00,
2013-09-17 20:11:00,63.0,47.0,-100.00,WSW,256,9.0,18.0,56,0.00,,,0.00,35.000000,,2013-09-18 03:11:00,
2013-09-17 20:23:00,63.0,47.0,-100.00,WSW,256,9.0,18.0,56,0.00,,,0.00,35.000000,,2013-09-18 03:23:00,
2013-09-17 20:55:00,63.0,49.0,-100.00,West,263,10.0,15.0,60,0.00,,,0.00,0.000000,,2013-09-18 03:55:00,
2013-09-17 21:04:00,63.0,49.0,-100.00,West,263,10.0,15.0,60,0.00,,,0.00,0.000000,,2013-09-18 04:04:00,
2013-09-17 21:14:00,63.0,49.0,-100.00,West,263,10.0,15.0,60,0.00,,,0.00,0.000000,,2013-09-18 04:14:00,
2013-09-17 21:24:00,63.0,49.0,-100.00,West,263,10.0,15.0,60,0.00,,,0.00,0.000000,,2013-09-18 04:24:00,
2013-09-17 21:54:00,62.0,48.0,-100.00,West,264,11.0,16.0,61,0.00,,,0.00,0.000000,,2013-09-18 04:54:00,
2013-09-17 22:04:00,62.0,48.0,-100.00,West,264,11.0,16.0,61,0.00,,,0.00,0.000000,,2013-09-18 05:04:00,
2013-09-17 22:12:00,62.0,48.0,-100.00,West,264,11.0,16.0,61,0.00,,,0.00,0.000000,,2013-09-18 05:12:00,
2013-09-17 22:23:00,62.0,48.0,-100.00,West,264,11.0,16.0,61,0.00,,,0.00,0.000000,,2013-09-18 05:23:00,
2013-09-17 22:53:00,60.0,47.0,-100.00,West,267,11.0,15.0,63,0.00,,,0.00,0.000000,,2013-09-18 05:53:00,
2013-09-17 23:02:00,60.0,47.0,-100.00,West,267,11.0,15.0,63,0.00,,,0.00,0.000000,,2013-09-18 06:02:00,
2013-09-17 23:12:00,60.0,47.0,-100.00,West,267,11.0,15.0,63,0.00,,,0.00,0.000000,,2013-09-18 06:12:00,
2013-09-17 23:22:00,60.0,47.0,-100.00,West,267,11.0,15.0,63,0.00,,,0.00,0.000000,,2013-09-18 06:22:00,
2013-09-17 23:52:00,60.0,47.0,-100.00,West,263,12.0,15.0,62,0.00,,,0.00,0.000000,,2013-09-18 06:52:00,